DMSP 5D-2 F13 DEB, 42272

Orbit data source: Space-Track

DMSP 5D-2 F13 DEB, 42272 is space debris in SSO originally from a launch on Fri, 24 Mar 1995 UTC launched from the Air Force Western Test Range (AFWTR). Debris objects in space refer to the collection of defunct objects orbiting the Earth. Examples of debris include non-operational satellites, rocket bodies, and fragments generated from explosions, collisions, or faulty payload assembly.

Loading next visibility...
Identifier
42272, 1995-015GN
Orbit
SSO
Country
Flag of USUS
Related business
Manufacturer
Unknown
Mission
Spacecraft
Bus & Motor
Unknown
Mass
Unknown
Launch date (UTC)
1995-03-24 (31 years ago)
Launch vehicle
Unknown
Launch site
Air Force Western Test Range (AFWTR)
Object type
Payload
Rocket body
Debris
Shape & HBR
Unknown shape, 0.1 m
Radar Cross Section
Small (<0.1 m²)

Expand to show TLE details & history
Last TLE update: 4 days ago

TLE from 4 days ago
0 DMSP 5D-2 F13 DEB
1 42272U 95015GN  26096.52153688  .00005051  00000-0  18252-2 0  9999
2 42272  98.8664 125.3794 0022444  56.6058 303.7269 14.33839367557427
Epoch: 2026-04-06T12:31Z
TLE epoch observation values (Epoch: 2026-04-06T12:31:00.786Z)
Latitude
-0.00001°
Longitude
102.81472°
Altitude
772.959 km
Speed
7.472 km/s
True Right ascension
08h 21m 31s
True Declination
0° 00' 00"
Sunlit
Object was in daylight at epoch
Visualization orbit readout
Latitude
Unknown
Longitude
Unknown
Altitude
Unknown
Speed
Unknown
Apparent Right ascension
Unknown
Apparent Declination
Unknown
Sunlit
N/A
Visualization observer readout
Local Sidereal Time
02:37:30
Azimuth
Unknown
Elevation
Unknown
Doppler factor
Unknown
Orbital elements
Apogee altitude
792.131 km
Perigee altitude
760.017 km
Semi-major axis
7,154.211 km
Eccentricity
0.00224
Inclination
98.8664°
RAAN
125.3794°
Arg. of periapsis
56.6058°
True anomaly
303.51266°
Mean anomaly
303.7269°
Eccentric anomaly
303.61982°
Mean motion
3.58675 °/min
Orbital period
100.37 mins
BSTAR
0.0018252
Loading maneuver chart data...
Computing Atmospheric mass density...

Documentation

Showing up to 5 results
|